Location: ???????????
(55.5758°N, 38.4970°E)
Time: 17:18:42
(UTC+00:00)

H-2A R/B - Pass Details

Date: 15 November 2025
Orbit: 522 x 537 km, 98.2° (Epoch: 14 December)

Event Time Altitude Azimuth Distance (km) Brightness Sun altitude
Rises 02:56:19 0° 10° (N) 2,680 6.9 -17.2°
Reaches altitude 10° 02:58:35 10° 0° (N) 1,783 5.8 -16.9°
Enters shadow 03:01:56 33° 300° (WNW) 913 3.9 -16.4°
